Hot Springs, AR

4:31 AM CDT on June 24, 2017 (GMT -0500)
Hot Springs Memorial

Weather History for KHOT - February, 2013

Change the Weather History Date:

Thursday, February 21, 2013

  Actual Average Record
Temperature  
Mean Temperature 33 °F -  
Max Temperature 36 °F 61 °F 87 °F (1986)
Min Temperature 30 °F 35 °F 18 °F (1978)
Degree Days  
Heating Degree Days 32    
Moisture  
Dew Point 31 °F    
Average Humidity 90    
Maximum Humidity 100    
Minimum Humidity 81    
Precipitation  
Precipitation 0.91 in - - ()
Sea Level Pressure  
Sea Level Pressure 29.85 in    
Wind  
Wind Speed 10 mph (East)    
Max Wind Speed 17 mph    
Max Gust Speed 28 mph    
Visibility 5 miles    
Events Fog , Rain , Snow , Thunderstorm    
Averages and records for this station are not official NWS values.
T = Trace of Precipitation, MM = Missing Value Source: NWS Daily Summary

Daily Weather History Graph

Daily Weather History Graph

Search for Another Location

Airport or City:

Trip Planner

Search our weather history database for the weather conditions in past years. The results will help you decide how hot, cold, wet, or windy it might be!

Date:

Astronomy

Feb. 21, 2013 Rise Set
Actual Time 6:50 AM CST 6:01 PM CST
Civil Twilight 6:25 AM CST 6:27 PM CST
Nautical Twilight 5:56 AM CST 6:56 PM CST
Astronomical Twilight 5:26 AM CST 7:25 PM CST
Moon 2:23 PM CST (2/21) 3:49 AM CST (2/21)
Length of Visible Light 12h 01m
Length of Day
11h 10m
Waxing Gibbous, 84% of the Moon is Illuminated
Feb 21
Waxing Gibbous
Feb 25
Full
Mar 4
Last Quarter
Mar 11
New
Mar 19
First Quarter

Hourly Weather History & Observations

Time (CST) Temp. Windchill Dew Point Humidity Pressure Visibility Wind Dir Wind Speed Gust Speed Precip Events Conditions
12:53 AM 32.0 °F 21.6 °F 27.0 °F 82% 30.09 in 10.0 mi East 15.0 mph - 0.01 in   Overcast
1:53 AM 30.9 °F 21.7 °F 27.0 °F 85% 30.07 in 10.0 mi East 11.5 mph - 0.00 in   Overcast
2:53 AM 30.9 °F 21.2 °F 27.0 °F 85% 30.04 in 10.0 mi East 12.7 mph 19.6 mph 0.00 in   Overcast
3:53 AM 30.9 °F 21.7 °F 27.0 °F 85% 30.00 in 10.0 mi East 11.5 mph 21.9 mph 0.00 in   Overcast
4:53 AM 32.0 °F 22.1 °F 27.0 °F 82% 29.99 in 10.0 mi East 13.8 mph 18.4 mph 0.00 in   Overcast
5:53 AM 32.0 °F 22.5 °F 28.0 °F 85% 29.98 in 10.0 mi East 12.7 mph 20.7 mph 0.06 in   Overcast
6:08 AM 32.0 °F 22.5 °F 28.4 °F 87% 29.95 in 10.0 mi East 12.7 mph - N/A   Overcast
6:53 AM 32.0 °F 23.6 °F 28.0 °F 85% 29.94 in 10.0 mi ESE 10.4 mph 27.6 mph 0.00 in   Overcast
7:22 AM 32.0 °F 22.5 °F 28.4 °F 87% 29.90 in 10.0 mi ESE 12.7 mph 20.7 mph 0.00 in Rain Light Freezing Rain
7:53 AM 33.1 °F 23.9 °F 28.9 °F 85% 29.89 in 2.5 mi ESE 12.7 mph 23.0 mph 0.07 in Rain , Thunderstorm Light Freezing Rain
8:01 AM 32.0 °F 21.6 °F 28.4 °F 87% 29.87 in 1.5 mi East 15.0 mph 23.0 mph 0.03 in Rain , Thunderstorm Light Freezing Rain
8:06 AM 33.8 °F 23.9 °F 28.4 °F 81% 29.86 in 2.5 mi East 15.0 mph 25.3 mph 0.06 in Rain , Thunderstorm Light Freezing Rain
8:11 AM 33.8 °F 23.5 °F 28.4 °F 81% 29.85 in 3.0 mi East 16.1 mph 25.3 mph 0.08 in Rain , Thunderstorm Light Freezing Rain
8:16 AM 33.8 °F 23.2 °F 28.4 °F 81% 29.84 in 4.0 mi East 17.3 mph 26.5 mph 0.08 in Rain Light Freezing Rain
8:35 AM 33.8 °F 24.8 °F 28.4 °F 81% 29.84 in 5.0 mi East 12.7 mph 20.7 mph 0.11 in Rain , Thunderstorm Light Freezing Rain
8:42 AM 33.8 °F 24.8 °F 30.2 °F 87% 29.85 in 1.8 mi ESE 12.7 mph - N/A Rain , Thunderstorm Light Freezing Rain
8:53 AM 33.1 °F 22.6 °F 30.0 °F 89% 29.85 in 1.5 mi ESE 16.1 mph 20.7 mph 0.24 in Rain , Thunderstorm Light Freezing Rain
8:57 AM 33.8 °F 24.8 °F 30.2 °F 87% 29.83 in 3.0 mi East 12.7 mph 20.7 mph 0.00 in Rain , Thunderstorm Light Freezing Rain
9:06 AM 33.8 °F 25.3 °F 30.2 °F 87% 29.82 in 10.0 mi ESE 11.5 mph 23.0 mph 0.00 in Rain Light Freezing Rain
9:14 AM 33.8 °F 23.9 °F 30.2 °F 87% 29.82 in 10.0 mi ESE 15.0 mph 20.7 mph 0.00 in Rain Light Rain
9:31 AM 33.8 °F 23.9 °F 30.2 °F 87% 29.78 in 9.0 mi East 15.0 mph 23.0 mph 0.00 in Rain , Thunderstorm Light Rain
9:44 AM 33.8 °F 25.8 °F 30.2 °F 87% 29.83 in 1.8 mi East 10.4 mph 17.3 mph 0.11 in Rain , Thunderstorm Heavy Thunderstorms and Rain
9:53 AM 33.1 °F 23.9 °F 30.0 °F 89% 29.79 in 1.8 mi East 12.7 mph 19.6 mph 0.17 in Rain , Thunderstorm Thunderstorms and Rain
10:04 AM 33.8 °F 26.4 °F 30.2 °F 87% 29.87 in 1.2 mi West 9.2 mph 16.1 mph 0.13 in Rain , Thunderstorm Heavy Rain
10:17 AM 33.8 °F 29.6 °F 30.2 °F 87% 29.85 in 2.5 mi Variable 4.6 mph 21.9 mph 0.17 in Rain , Thunderstorm Rain
10:20 AM 33.8 °F 30.8 °F 30.2 °F 87% 29.86 in 2.5 mi Variable 3.5 mph - 0.17 in Rain Rain
10:28 AM 33.8 °F 29.6 °F 30.2 °F 87% 29.84 in 4.0 mi Variable 4.6 mph - 0.17 in Rain Light Rain
10:53 AM 33.1 °F 26.9 °F 30.9 °F 92% 29.86 in 5.0 mi East 6.9 mph - 0.21 in Rain Light Rain
11:03 AM 33.8 °F 27.0 °F 30.2 °F 87% 29.83 in 6.0 mi East 8.1 mph - 0.01 in Rain , Thunderstorm Light Rain
11:12 AM 33.8 °F 27.0 °F 30.2 °F 87% 29.83 in 4.0 mi East 8.1 mph - 0.02 in Rain Light Rain
11:26 AM 33.8 °F 27.0 °F 30.2 °F 87% 29.82 in 5.0 mi East 8.1 mph - 0.03 in Rain , Thunderstorm Rain
11:44 AM 33.8 °F 26.4 °F 30.2 °F 87% 29.80 in 10.0 mi East 9.2 mph - 0.04 in Rain , Thunderstorm Light Rain
11:53 AM 34.0 °F 25.5 °F 30.9 °F 89% 29.80 in 8.0 mi ESE 11.5 mph - 0.05 in Rain , Thunderstorm Light Rain
12:01 PM 33.8 °F 27.0 °F 30.2 °F 87% 29.79 in 8.0 mi East 8.1 mph - 0.00 in Rain Light Rain
12:13 PM 33.8 °F 28.6 °F 32.0 °F 93% 29.81 in 5.0 mi ENE 5.8 mph - 0.01 in Rain Rain
12:53 PM 34.0 °F 28.0 °F 32.0 °F 92% 29.79 in 5.0 mi ENE 6.9 mph - 0.03 in Rain Light Rain
1:09 PM 33.8 °F 27.0 °F 32.0 °F 93% 29.76 in 2.5 mi East 8.1 mph - 0.00 in Rain Light Rain
1:34 PM 33.8 °F 26.4 °F 32.0 °F 93% 29.74 in 1.8 mi East 9.2 mph - 0.00 in Rain Light Rain
1:43 PM 33.8 °F 27.7 °F 32.0 °F 93% 29.74 in 2.0 mi East 6.9 mph - 0.00 in   Overcast
1:46 PM 33.8 °F 27.7 °F 32.0 °F 93% 29.74 in 1.8 mi East 6.9 mph - 0.00 in   Overcast
1:53 PM 34.0 °F 28.0 °F 32.0 °F 92% 29.75 in 1.5 mi East 6.9 mph - 0.00 in Rain Light Rain
2:53 PM 35.1 °F 32.2 °F 33.1 °F 92% 29.76 in 1.8 mi East 3.5 mph - 0.03 in Rain Light Rain
3:07 PM 35.6 °F 29.9 °F 33.8 °F 93% 29.75 in 2.0 mi ENE 6.9 mph - 0.02 in Rain Light Rain
3:24 PM 35.6 °F 31.7 °F 33.8 °F 93% 29.75 in 2.0 mi East 4.6 mph - 0.03 in Rain Light Rain
3:53 PM 35.1 °F 30.1 °F 33.1 °F 92% 29.75 in 3.0 mi East 5.8 mph - 0.04 in Rain Light Rain
4:44 PM 35.6 °F 30.7 °F 33.8 °F 93% 29.74 in 10.0 mi East 5.8 mph - 0.00 in   Overcast
4:53 PM 36.0 °F 30.3 °F 33.1 °F 89% 29.75 in 10.0 mi East 6.9 mph - 0.00 in   Overcast
5:17 PM 35.6 °F - 33.8 °F 93% 29.77 in 10.0 mi Calm Calm - N/A   Overcast
5:53 PM 36.0 °F - 34.0 °F 93% 29.81 in 10.0 mi Calm Calm - N/A   Overcast
6:53 PM 35.1 °F 32.2 °F 34.0 °F 96% 29.86 in 10.0 mi North 3.5 mph - N/A   Overcast
7:08 PM 35.6 °F 32.8 °F 33.8 °F 93% 29.84 in 8.0 mi Variable 3.5 mph - N/A   Overcast
7:16 PM 33.8 °F 30.8 °F 33.8 °F 100% 29.85 in 10.0 mi NNW 3.5 mph - N/A   Mostly Cloudy
7:31 PM 35.6 °F - 33.8 °F 93% 29.85 in 10.0 mi Calm Calm - N/A   Mostly Cloudy
7:53 PM 35.1 °F - 33.1 °F 92% 29.87 in 10.0 mi Calm Calm - N/A   Mostly Cloudy
8:07 PM 33.8 °F - 32.0 °F 93% 29.86 in 9.0 mi Calm Calm - N/A   Scattered Clouds
8:53 PM 32.0 °F - 30.9 °F 96% 29.87 in 5.0 mi Calm Calm - N/A   Clear
8:59 PM 32.0 °F 27.5 °F 30.2 °F 93% 29.87 in 1.8 mi NE 4.6 mph - N/A   Partly Cloudy
9:02 PM 32.0 °F 27.5 °F 30.2 °F 93% 29.87 in 0.8 mi East 4.6 mph - N/A   Mist
9:14 PM 32.0 °F 28.7 °F 30.2 °F 93% 29.87 in 0.2 mi ENE 3.5 mph - N/A Fog Fog
9:34 PM 32.0 °F - 30.2 °F 93% 29.87 in 0.5 mi Calm Calm - N/A Fog Fog
9:45 PM 30.2 °F - 28.4 °F 93% 29.88 in 0.2 mi Calm Calm - N/A Fog Light Freezing Fog
9:53 PM 30.9 °F - 28.9 °F 92% 29.89 in 0.2 mi Calm Calm - N/A Fog Light Freezing Fog
10:06 PM 30.2 °F - 30.2 °F 100% 29.88 in 0.8 mi Calm Calm - N/A   Mist
10:23 PM 30.2 °F - 30.2 °F 100% 29.88 in 0.2 mi Calm Calm - N/A Fog Light Freezing Fog
10:37 PM 30.2 °F - 30.2 °F 100% 29.89 in 0.8 mi Calm Calm - N/A   Mist
10:44 PM 32.0 °F - 30.2 °F 93% 29.89 in 1.0 mi Calm Calm - N/A   Mist
10:53 PM 32.0 °F - 30.9 °F 96% 29.90 in 0.5 mi Calm Calm - 0.00 in Fog , Snow Light Snow
11:10 PM 33.8 °F 29.6 °F 30.2 °F 87% 29.89 in 0.2 mi NW 4.6 mph - 0.00 in Fog , Snow Light Snow
11:45 PM 33.8 °F - 33.8 °F 100% 29.90 in 0.2 mi Calm Calm - 0.00 in Fog Fog
11:53 PM 33.8 °F - 33.8 °F 100% 29.90 in 0.2 mi Calm Calm - N/A Fog Fog